Regional Weather Roundup
Issued by NWS

Home | Current Version | Previous Version | Text Only | Print | Product List | Glossary On
Versions: 1 2 3 4 5 6 7 8 9 10 11 12 13 14 15 16 17 18 19 20 21 22 23 24 25 26 27 28 29 30 31 32 33 34 35 36 37 38 39 40 41 42 43 44 45 46 47 48 49 50
484
ASHW40 PHFO 111143
RWRHI

WEATHER ROUNDUP FOR HAWAII
NATIONAL WEATHER SERVICE HONOLULU HI
100 AM HST THU FEB 11 2016

THIS IS AN AUTOMATED REPORT THAT HAS NOT BEEN QUALITY CONTROLLED.

NOTE..."FAIR" INDICATES FEW OR NO CLOUDS BELOW 12,000 FEET WITH NO
SIGNIFICANT WEATHER AND/OR OBSTRUCTIONS TO VISIBILITY.

* - THESE SITES REPORT LIMITED FIELDS

HIZ001>004-111200-
KAUAI-NIIHAU-

CITY           SKY/WX    TMP DP  RH WIND       PRES   REMARKS
LIHUE APT      PTCLDY    67  60  78 W7        30.07S
PORT ALLEN*      N/A     64 N/A N/A NE6         N/A
POIPU*           N/A     63 N/A N/A NW3         N/A
PRINCEVILLE*     N/A     66 N/A N/A S3          N/A
KOKOLE POINT*  NOT AVBL
MOLOAA DAIRY*    N/A     64  63  94 W1          N/A
WAIMEA HTS*      N/A     68  55  64 N5          N/A
PUU OPAE*        N/A     59  54  82 NE3         N/A
PUU LUA*       NOT AVBL
MAKAHA RIDGE*    N/A     63  57  82 S3          N/A
$$

HIZ005>011-111200-
OAHU-

CITY           SKY/WX    TMP DP  RH WIND       PRES   REMARKS
HONOLULU       PTCLDY    69  61  75 NW6       30.05F
KALAELOA       CLEAR     61  55  81 CALM      30.07S
KANEOHE MCB    PTCLDY    68  63  84 S3        30.03F
WHEELER FIELD  FAIR      62  58  86 NW5       30.05F
BELLOWS*         N/A    N/A N/A N/A NE6         N/A
KAHUKU*          N/A    N/A N/A N/A VRB1        N/A
WHEELER*         N/A    N/A N/A N/A N5          N/A
WAIANAE HARBOR   N/A    N/A N/A N/A NE3         N/A
DILLINGHAM*      N/A     86  77  74 MISG        N/A  HX  97
KAHUKU TRN*      N/A     64  59  82 E3          N/A
KAWAILOA*        N/A     64  59  82 SE1         N/A
KII*             N/A     66  61  82 SE3         N/A
MAKUA RANGE*     N/A     64  55  72 E5G10       N/A
OAHU FOREST NW   N/A    N/A N/A N/A MISG        N/A
SCHOFIELD BRK*   N/A     57  54  88 MISG        N/A
SCHOFIELD S*   NOT AVBL
WAIANAE VLY*   NOT AVBL
KUAOKALA*        N/A     66  59  77 NE8G15      N/A
HONOULIUULI*   NOT AVBL
MOKUOLOE IS*   NOT AVBL
PALEHUA*         N/A     61  55  82 NE7         N/A
WAIAWA PHB*    NOT AVBL
$$

HIZ012>013-111200-
MOLOKAI-

CITY           SKY/WX    TMP DP  RH WIND       PRES   REMARKS
MOLOKAI AIRPT  CLEAR     60  57  89 CALM      30.07S
KALAUPAPA      NOT AVBL
MAKAPULAPAI*     N/A    N/A N/A N/A E8          N/A
MOLOKAI 1*     NOT AVBL
PUU ALII*        N/A     52  49  88 N3G12       N/A
$$

HIZ016-111200-
KAHOOLAWE-

CITY           SKY/WX    TMP DP  RH WIND       PRES   REMARKS
KAHOOLAWE*       N/A     63 N/A N/A NE1         N/A
HAKIOAWA*        N/A     65  60  84 MISG      30.46F
HONOKANAIA*      N/A     69  59  71 N9G15       N/A
KANELOA*         N/A     66  59  77 N7G14     30.11F
KEALIALALO*    NOT AVBL
LUA MAKIKA*    NOT AVBL
$$

HIZ014>015-111200-
LANAI-

CITY           SKY/WX    TMP DP  RH WIND       PRES   REMARKS
LANAI CITY     FAIR      64  58  80 NE13      30.09F
LANAI 1*       NOT AVBL
$$

HIZ017>028-111200-
MAUI-

CITY           SKY/WX    TMP DP  RH WIND       PRES   REMARKS
KAHULUI        CLEAR     66  60  81 CALM      30.06S
KAPALUA-W MAUI NOT AVBL
HANA AIRPORT   NOT AVBL
HANA*            N/A     64 N/A N/A S5          N/A
HALEAKALA SUMM   N/A     43 -15   8 N6          N/A
MAALAEA BAY*     N/A     70 N/A N/A N9          N/A
HALEAKALA*     NOT AVBL
KAUPO GAP*       N/A     52  41  66 W1G9        N/A
KULA 1*          N/A     50  14  23 E5          N/A
$$

HIZ023>026-111200-
BIG ISLAND OF HAWAII COAST AND LOWER SLOPES-

CITY           SKY/WX    TMP DP  RH WIND       PRES   REMARKS
KAILUA KONA    NOT AVBL
HILO           PTCLDY    64  56  75 SW6       30.05F
HONOKAA*         N/A     63 N/A N/A VRB1        N/A
KAWAIHAE MWT*    N/A     72 N/A N/A NE7         N/A
KAWAIHAE*      NOT AVBL
SOUTH POINT*     N/A     64 N/A N/A NW6         N/A
UPOLU AIRPORT*   N/A    N/A N/A N/A E10         N/A
KAMUELA*       NOT AVBL
HAKALAU*         N/A    N/A N/A N/A W6          N/A
KALOKO-HONOKO*   N/A     64  54  68 CALM        N/A
PALI 2*          N/A     55  48  76 N8          N/A
KEALAKOMO*       N/A     72  59  64 NE15G26     N/A
KAUPULEHU*       N/A     63  45  51 SE9         N/A
KAPAPALA*        N/A     56  54  94 N3          N/A
LOWER KAHUKU*    N/A     54 -45   1 N2          N/A
PUHE CS*         N/A     70  50  49 NE3         N/A
PUHO CS*         N/A     67  53  61 E2          N/A
PTA KEAMUKU*     N/A     50  39  66 CALM        N/A
WAIKOLOA*        N/A     63  54  72 E16         N/A
$$

HIZ027>028-111200-
BIG ISLAND OF HAWAII INTERIOR AND SUMMMITS-

CITY           SKY/WX    TMP DP  RH WIND       PRES   REMARKS
BRADSHAW FIELD PTCLDY    41  26  55 SE3       30.30F
MK VISITOR CEN   N/A     41   5  22 VRB3        N/A
MAUNA KEA*       N/A     39 -26   5 N26         N/A  WCI  28
MAUNA LOA*       N/A     41 -35   3 MISG        N/A
MAUNA LOA 1*   NOT AVBL
PTA KIPUKA*      N/A     45  36  70 E5          N/A
PTA RANGE 17*    N/A    N/A N/A N/A E7          N/A
PTA WEST*        N/A    N/A N/A N/A SE12G18     N/A
NENE CABIN*      N/A     39  10  30 N5          N/A
AHUMOA*          N/A    N/A N/A N/A E7          N/A
PTA PORTABLE*  NOT AVBL
PUU MALI*        N/A    N/A N/A N/A S8          N/A
$$

HIC003-111200-
NORTHWEST ISLANDS-

CITY           SKY/WX    TMP DP  RH WIND       PRES   REMARKS
MIDWAY ISLAND  CLOUDY    70  66  88 S9        29.90S
MIDWAY NOS*    NOT AVBL
FRENCH FRIGATE NOT AVBL
$$

PHZ110>124-180-111200-
BUOY REPORTS

STATION/POSITION TIME  TEMP    WIND        PRES    WAVE   SWELL
                       AIR SEA DIR/SP/G            HT/PER HT/DIR
                 (UTC) (F)     (DEG/KT/KT) (MB)    (FT/S) (FT/D)
BUOY 51001       1100   72 75   70/  8/ 12 1018.4F
BUOY 51101       1050   72 75   80/  8/ 12 1018.3F  16/16  16/320
BUOY 51100       NOT AVBL
BUOY 51002       1050   76 78   60/ 17/ 19 1015.4F  12/17  10/340
BUOY 51003       1050   75 78   50/ 10/ 12 1017.2S  12/17  11
BUOY 51004       1050   76 77   60/ 14/ 17 1015.5F  12/19  11/320
BARBERS PT BUOY  NOT AVBL
WAIMEA BAY BUOY  1104      78                N/A    12/18  11/330
KAILUA BAY BUOY  1011      77                N/A    10/20   8/360
LANAI BUOY       NOT AVBL
BARBERS PT 2     1103      78                N/A     5/18   5/310
PAUWELA MAUI     1107      76                N/A    13/18  11/330
HILO             NOT AVBL
KANEOHE BAY BUOY 1106      76                N/A     6/11   5/340
HANALEI KAUAI    1101      77                N/A    15/17  15/320
KAHULUI HARBOR   NOT AVBL
HONOLULU HARBOR  1100   71 77   CALM  /  2 1018.0
KILO NALU        NOT AVBL
HILO HARBOR      1100   66 76  220/  4/  5 1017.2
MOKUOLOE         1000   69 77   CALM  /  3   N/A
NAWILIWILI       1100   64 77  250/  5/  5 1017.9
WHOTS BUOY       NOT AVBL
BUOY 51028       NOT AVBL
$$

......................KEY........................................
  SKY/WX - SKY CONDITIONS/PRESENT WEATHER
  TMP    - TEMPERATURE IN FAHRENHEIT
  DWPT   - DEWPOINT IN FAHRENHEIT
  RH     - RELATIVE HUMIDITY IN PERCENT
  WIND   - DIRECTION AND SPEED /MPH FOR ISLANDS...KTS FOR BUOYS/
  PRES   - MEAN SEA LEVEL PRESSURE IN INCHES OF HG
  VSB    - VISIBILITY IN MILES
  HX     - HEAT INDEX
  WCI    - WIND CHILL INDEX
  VRB    - VARIABLE WIND DIRECTION
  N/A    - NOT AVAILABLE




USA.gov is the U.S. government's official web portal to all federal, state and local government web resources and services.